Location: Oshawa
(43.9000°N, 78.8670°W)
Time: 02:16:30
(UTC-04:00)

PAYLOAD A - Visible Passes

Search period start: 21 August 2014 00:00
Search period end: 31 August 2014 00:00
Orbit: 693 x 832 km, 98.2° (Epoch: 20 August)

Date Brightness Start Highest point End Pass type
(mag) Time Alt. Az. Time Alt. Az. Time Alt. Az.
21 Aug 6.6 21:16:13 10° SW 21:19:21 17° W 21:22:34 10° NW visible
22 Aug 5.5 20:37:03 10° SSW 20:41:30 38° W 20:46:09 10° NNW visible
24 Aug 6.4 21:01:51 10° SW 21:05:41 23° W 21:09:38 10° NW visible
25 Aug 4.9 20:23:12 10° S 20:27:55 52° W 20:32:50 10° NNW visible
26 Aug 6.8 21:27:27 10° WSW 21:29:57 14° W 21:32:29 10° WNW visible
27 Aug 5.9 20:47:44 10° SSW 20:52:02 31° W 20:56:31 10° NNW visible
29 Aug 6.6 21:12:48 10° SW 21:16:15 19° W 21:19:48 10° NW visible
30 Aug 5.4 20:33:47 10° SSW 20:38:25 41° W 20:43:16 10° NNW visible
